Info: HARAP PERHATIKAN REK BANK AKTIF TUJUAN DEPOSIT SEBELUM TRANSFER..BCA BNI BRI CIMBNIAGA MANDIRI PERMATA ONLINE..POKER88 Memberikan Banyak Bonus & Hadiah serta menghadirkan mini games terbaru BIG or SMALL..Akses selalu melalui website resmi kami http://pk88asia.xyz
REGISTER JACKPOT DEPOSIT REFERRAL DOWNLOAD PROMOSI CONTACT VIP
JACKPOT



   

Jackpot Winner Ceme

Jackpot hanya dapat di beli di awal sebelum periode tersebut berjalan dan jika berhasil maka anda dapat melihat di sisi kiri bawah atau kiri atas akan terdapat notifikasi bahwa jackpot anda berhasil di beli.

Jika anda membeli jackpot di tengah permainan maka pembelian jackpot akan berlaku untuk periode selanjutnya.

Jackpot dilihat dari gabungan kartu pemain dengan kartu bandar. Bandar harus membeli jackpot sebanyak jumlah player yang sedang duduk. Sebagai contoh bila terdapat 3 pemain duduk bermain, dan bandar memutuskan untuk membeli jackpot Rp 1.000, maka pada periode tersebut bandar akan membeli jackpot sebanyak 3xRp1.000 = Rp3.000.

Jackpot bukanlah suatu keharusan untuk dibeli, namun kami memberikan suatu fitur tambahan untuk member tercinta dari www.onlinepk88.net.

Terdapat tiga pilihan harga jackpot yang bisa anda beli yaitu :100,500 dan 1000 rupiah.

Hadiah dari Multi jackpot system www.onlinepk88.net

  1. Murni Kecil x 50 harga jackpot yang anda beli.
      (contoH:anda membeli 1000 maka:1000 X 50 = 50.000)
  2. Murni Besar x 50 harga jackpot yang anda beli
      (contoH:anda membeli 1000 maka:1000 X 50 = 50.000)
  3. BALAK x 200 harga jackpot yang anda beli
      (contoH:anda membeli 1000 maka:1000 X 200 = 200.000)
  4. ENAM DEWA x 6666 harga jackpot yang anda beli
      (contoH:anda membeli 1000 maka:1000 X 6666 = 6.666.000)

Demikian adalah penjelasan dari Multi Jackpot www.onlinepk88.net terima kasih dan selamat bermain salam hoki dari kami


Jackpot Winner

TOP ENAM DEWA
No. Tanggal Nama Price Win
1 21/01 08:00 CHIKO521 murni enam 6,666,000
2 21/01 07:40 CHIKO521 murni enam 6,666,000
3 21/01 07:00 JENGLOT990 murni enam 6,666,000
4 21/01 06:33 UNTUNG1717 murni enam 3,333,000
5 21/01 06:31 SALIM4 murni enam 6,666,000
TOP BALAK
No. Tanggal Nama Price Win
1 21/01 09:09 I3T1EEI8B1 balak 200,000
2 21/01 09:08 JIBRIEL77 balak 100,000
3 21/01 09:07 XVCDR5K14U balak 20,000
4 21/01 09:07 GUDELL_88 balak 100,000
5 21/01 09:07 IRV balak 20,000
LATEST JACKPOT
No. Tanggal Nama Price Win
1 21/01 09:09 I3T1EEI8B1 balak 200,000
2 21/01 09:09 PASTOR07 murni besar 50,000
3 21/01 09:09 BUCEX murni kecil 5,000
4 21/01 09:08 NADAY murni kecil 50,000
5 21/01 09:08 JIBRIEL77 balak 100,000
6 21/01 09:08 HIDDEUNG murni kecil 5,000
7 21/01 09:07 XVCDR5K14U balak 20,000
8 21/01 09:07 KECONG1397 murni besar 25,000
9 21/01 09:07 TOPO155 murni besar 50,000
10 21/01 09:07 GUDELL_88 balak 100,000
11 21/01 09:07 DAVINA2 murni kecil 50,000
12 21/01 09:07 IRV balak 20,000
13 21/01 09:06 KUTIL_04 murni kecil 50,000
14 21/01 09:06 NN84 murni kecil 50,000
15 21/01 09:06 JASMINE1 murni kecil 50,000
16 21/01 09:06 CHELSEAA murni kecil 50,000
17 21/01 09:06 CHELSEAA murni kecil 50,000
18 21/01 09:06 GOPEL86 murni kecil 5,000
19 21/01 09:06 TABBLAS balak 200,000
20 21/01 09:06 TEMPLO balak 200,000
21 21/01 09:06 ORGPERTAMA balak 200,000
22 21/01 09:05 MAGDA88 murni kecil 25,000
23 21/01 09:05 WOOK66 murni kecil 50,000
24 21/01 09:05 JEPAANK murni besar 50,000
25 21/01 09:05 DAVINA2 murni kecil 50,000
26 21/01 09:05 FOTINAMAJU murni kecil 50,000
27 21/01 09:05 ENCUY279 murni kecil 5,000
28 21/01 09:05 GAOENKLAH murni besar 50,000
29 21/01 09:05 ESSEHONEY murni kecil 25,000
30 21/01 09:05 BABEKU182 murni kecil 50,000
31 21/01 09:04 SAMUDRS murni kecil 50,000
32 21/01 09:04 NCI39753 murni kecil 25,000
33 21/01 09:04 ZEEUS murni besar 50,000
34 21/01 09:04 BIOTECHNOL murni besar 50,000
35 21/01 09:04 GENZHOT198 murni besar 25,000
36 21/01 09:03 ABDI852 murni kecil 50,000
37 21/01 09:03 TXJX1P2OGM murni kecil 5,000
38 21/01 09:03 CUM11 murni kecil 50,000
39 21/01 09:03 BOROS123 murni kecil 50,000
40 21/01 09:03 XVRNE7SRAF murni kecil 50,000
41 21/01 09:02 CHIKO521 murni kecil 50,000
42 21/01 09:02 ANDA81_ murni besar 50,000
43 21/01 09:02 RZN521 murni kecil 50,000
44 21/01 09:02 B4NGD3N murni kecil 25,000
45 21/01 09:02 AMB881263 murni besar 5,000
46 21/01 09:02 HC6XT0EOBV murni kecil 5,000
47 21/01 09:02 VZ768311A9 balak 20,000
48 21/01 09:02 ERIK3333 murni kecil 50,000
49 21/01 09:01 STEFEN888 murni besar 50,000
50 21/01 09:01 EWINKIBO14 murni kecil 50,000
Dewa.FM